www.pogodaiklimat.ru

Погода и климат >> Архив погоды >> Казахстан >> Караганда


АРХИВ ПОГОДЫ в Караганде

Время (UTC), дата Ветер
(напр.,м/с)
 
Видим.   Явления Облачность Т
(С)
Тd
(С)
f
(%)
Тe
(С)
Тes
(С)
Комфортность P
(гПа)
Po
(гПа)
Тmin
(С)
Tmax
(С)
R
(мм)
R24
(мм)
S
(см)
21 16.02 Ю 6 20 км позёмок 10/0
[Ac As]
-2.9 -5.2 84 -10 -10 тепло 1013.9 946.1
00 17.02 Ю 6 20 км позёмок 10/0
[Ac As]
-2.3 -4.8 83 -9 -9 тепло 1011.8 944.3
03 17.02 ЮВ 5 20 км позёмок 9/4 1000 м
[Sc Ac As]
-3.1 -6.4 78 -10 -10 тепло 1010.2 942.6 38
06 17.02 Ю 7 20 км позёмок 9/5 1000 м
[Sc Ac As]
-2.5 -7.1 71 -10 -10 тепло 1007.4 940.2 -3.1 0.0
09 17.02 Ю 5 20 км {метель} 10/6 1000 м
[Sc Ac As]
-1.3 -6.9 66 -7 -7 тепло 1006.3 939.4
12 17.02 ЮВ 3 20 км {метель} 9/3 1000 м
[Sc Ac As Ci sp]
-1.7 -7.5 65 -6 -6 тепло 1004.3 937.4
15 17.02 Ю 4 20 км 10/5 1000 м
[Sc As op]
-2.1 -8.1 63 -8 -8 тепло 1003.1 936.2 -0.4
18 17.02 Ю 6 4000 м слаб. снег {метель} 10/0
[As op]
-3.5 -5.6 85 -11 -11 тепло 1002.1 935.0 -0.4
21 17.02 Ю 5 20 км позёмок {снег} 10/6 600 м
[St As op]
-1.9 -3.6 88 -8 -8 тепло 999.7 933.1
00 18.02 Ю 8-17
{19}
4000 м метель {снег} 10/8 600 м
[St As op]
-5.7 -7.8 85 -15 -15 по сезону 1001.4 933.8
03 18.02 ЮЗ 9-15
{17}
1000 м слаб. снег {метель} 10/8 300 м
[Frnb As op]
-7.7 -9.4 88 -18 -18 по сезону 1003.7 935.4 37
06 18.02 ЮЗ 8
{16}
2000 м слаб. снег {метель} 10/6 300 м
[Frnb As op]
-7.3 -9.8 82 -17 -16 по сезону 1007.4 939.0 -7.7 0.3
09 18.02 ЮЗ 5 10 км слаб. снег {метель} 10/0
[As op]
-6.3 -9.4 79 -14 -13 по сезону 1008.4 940.2
12 18.02 Ю 4 20 км {снег, метель} 10/0
[As op]
-4.3 -6.9 82 -11 -11 по сезону 1007.9 940.2
15 18.02 ЮЗ 4 10 км слаб. снег 8/0
[As op]
-4.3 -6.5 85 -11 -11 тепло 1009.4 941.6 -4.1
18 18.02 ЮЗ 4 10 км слаб. снег 8/0
[As op]
-5.9 -8.1 84 -12 -12 тепло 1010.1 941.8 -4.1 1
21 18.02 Ю 4 20 км {снег} ясно -6.9 -9.3 83 -14 -14 по сезону 1010.6 942.1
00 19.02 Ю 4 10 км слаб. снег 10/0
[As op]
-5.3 -7.7 83 -12 -12 тепло 1008.9 940.9
03 19.02 Ю 5 10 км слаб. снег {метель} 10/0
[As op]
-1.8 -3.5 88 -8 -8 тепло 1007.3 940.2 39
06 19.02 Ю 6 10 км слаб. снег {метель} 10/8 600 м
[Frnb As op]
-0.7 -2.8 86 -8 -7 тепло 1007.0 940.3 -7.1 0.4
09 19.02 Ю 7
{17}
10 км слаб. снег 10/10 300 м
[Frnb Ns]
-0.1 -1.5 90 -7 -7 тепло 1007.6 940.9
12 19.02 Ю 5 20 км {снег} 10/10 600 м
[Sc]
+0.4 -1.6 86 -6 -6 тепло 1009.0 942.4
15 19.02 Ю 3 4000 м снег 10/10 300 м
[Frnb Ns]
0.0 -0.8 94 -5 -5 тепло 1010.2 943.4 +0.5
18 19.02 Ю 7 2000 м снег {метель} 10/10 300 м
[Frnb Ns]
-1.5 -2.3 94 -9 -9 тепло 1011.2 944.0 +0.5 2
21 19.02 Ю 5 2000 м снег {метель} 10/10 300 м
[Frnb Ns]
-1.5 -2.6 92 -8 -8 тепло 1011.5 944.3
00 20.02 Ю 7 20 км позёмок {снег} 10/0
[As op]
-2.4 -4.6 85 -10 -10 тепло 1010.2 942.8
03 20.02 Ю 5 10 км слаб. снег {метель} 10/0
[As op]
-1.9 -3.0 92 -9 -8 тепло 1010.7 943.4 42
06 20.02 ЮЗ 4 10 км слаб. снег {метель} 10/0
[As op]
-2.5 -4.0 89 -9 -8 тепло 1014.1 946.4 -2.8 4
09 20.02 ЮЗ 4 20 км {снег} 10/8 1000 м
[Sc Ac As]
-2.6 -5.5 80 -9 -8 тепло 1016.0 948.2
12 20.02 ЮЗ 4 20 км позёмок {снег} 10/6 600 м
[St As op]
-3.5 -6.3 81 -10 -10 тепло 1017.3 949.2
15 20.02 ЮЗ 4 20 км {метель} 10/4 1000 м
[Sc Ac As]
-6.6 -9.3 81 -13 -13 по сезону 1020.5 951.4 -1.9
18 20.02 ЮЗ 4 10 км слаб. снег {метель} 10/0
[As op]
-6.8 -8.8 86 -13 -13 тепло 1021.7 952.4 -1.9 0.3
21 20.02 ЮЗ 4 10 км слаб. снег 10/0
[As op]
-8.4 -11.1 81 -15 -15 по сезону 1023.4 953.6
00 21.02 ЮЗ 4 10 км слаб. снег 8/0
[As op]
-11.0 -13.3 83 -18 -18 по сезону 1025.2 954.6
03 21.02 ЮЗ 4 4000 м слаб. снег {метель} 10/4 600 м
[Frnb As op]
-10.7 -13.0 83 -18 -18 по сезону 1028.1 957.4 45
06 21.02 ЮЗ 5 4000 м слаб. снег {метель} 10/5 600 м
[Frnb As trans]
-9.6 -12.6 79 -17 -17 по сезону 1030.5 959.9 -11.1 0.9
09 21.02 ЮЗ 5 4000 м слаб. снег {метель} 8/3 600 м
[Frnb As trans]
-9.3 -12.7 76 -17 -16 по сезону 1031.8 961.2
12 21.02 ЮЗ 4 20 км позёмок {снег} 6/3 600 м
[St As trans]
-10.1 -13.0 79 -17 -17 по сезону 1034.3 963.3
15 21.02 ЮЗ 3 10 км слаб. снег {метель} 8/0
[As op]
-11.5 -13.8 83 -17 -17 по сезону 1036.6 965.1 -8.7
18 21.02 ЮЗ 4 10 км слаб. снег {метель} 10/0
[As op]
-10.2 -12.5 83 -17 -17 по сезону 1037.1 966.0 -8.7 0.4
21 21.02 ЮЗ 3 20 км {снег} 3/0
[Ac trans]
-13.1 -15.4 83 -19 -19 по сезону 1039.1 967.0
00 22.02 Ю 2 20 км {снег} 1/0
[Ci fib]
-14.6 -17.3 80 -20 -20 по сезону 1040.1 967.5
03 22.02 Ю 2 20 км 8/0
[Ac trans Ci fib]
-14.6 -17.3 80 -20 -19 по сезону 1041.2 968.5 45
06 22.02 Ю 3 20 км 4/0
[Ac trans]
-9.2 -13.1 73 -15 -12 по сезону 1040.6 969.4 -15.1 0.2
09 22.02 ЮЗ 3 20 км 3/0
[Ac trans]
-7.8 -12.3 70 -13 -11 по сезону 1039.5 968.8
12 22.02 ЮВ 2 20 км ясно -8.8 -14.1 65 -13 -13 по сезону 1039.3 968.3
15 22.02 ЮВ 2 20 км ясно -12.8 -16.6 73 -17 -17 по сезону 1040.1 968.0 -7.1
18 22.02 ЮВ 2 20 км ясно -12.7 -17.6 67 -17 -17 по сезону 1039.2 967.2 -7.1
21 22.02 ЮВ 3 20 км ясно -12.0 -17.4 64 -18 -18 по сезону 1038.1 966.3
00 23.02 ЮВ 2 20 км ясно -13.1 -18.1 66 -18 -18 по сезону 1036.9 964.9
03 23.02 ЮВ 4 20 км 1/0
[Ci fib]
-11.6 -17.0 64 -19 -18 по сезону 1035.4 964.0 45
06 23.02 ЮВ 4 20 км 1/0
[Ci fib]
-8.3 -14.5 61 -15 -11 по сезону 1033.7 963.2 -13.4
09 23.02 ЮВ 4 20 км 1/0
[Ci fib]
-4.5 -10.0 65 -10 -8 по сезону 1030.7 961.4
12 23.02 ЮВ 2 20 км 1/0
[Ci fib]
-5.6 -10.6 68 -10 -10 по сезону 1029.1 959.6
15 23.02 В 1 20 км ясно -11.9 -15.0 78 -14 -14 по сезону 1029.9 958.8 -3.5
18 23.02 ЮВ 1 20 км ясно -12.7 -16.2 75 -15 -15 по сезону 1028.8 957.5 -3.5

 

Местоположение метеостанции Караганда (Карагандинская область, Казахстан): широта 49.80 долгота 73.15 высота над уровнем моря 553 м.

В архиве по умолчанию представлена погода в Караганде за последнюю неделю. Архивные данные за месяц целиком и за предыдущие месяцы, начиная с января 2011 года, Вы можете получить, выбрав интересующий диапазон дат из раскрывающегося списка и нажав кнопку "Ввод!".


*Определитесь, кто Вы:
робот инопланетянин человек

Внимание! Время в таблицах - всемирное. Для получения местного времени необходимо прибавить поправку, которая равна 6 ч.

Смотрите также архив погоды в соседних городах и на ближайших метеорологических станциях:

Погода в Караганде-ШОС (Карагандинская область, Казахстан) (4 км)
Погода в Корнеевке (Карагандинская область, Казахстан) (11 км)
Погода в Темиртау (Карагандинская область, Казахстан) (33 км)
Погода в Топаре (Карагандинская область, Казахстан) (40 км)
Погода в Осакаровке (Карагандинская область, Казахстан) (94 км)
Погода в Молодежном (Карагандинская область, Казахстан) (107 км)
Погода в Бесобе (Карагандинская область, Казахстан) (108 км)
Погода в Жарыке (Карагандинская область, Казахстан) (108 км)
Погода в Кертинди (Карагандинская область, Казахстан) (114 км)
Погода в Киевке (Карагандинская область, Казахстан) (123 км)

Пояснения к столбцам:

Ветер - указаны скорость ветра в м/с - средняя за 10 мин, порывы в срок и между сроками (в фигурных скобках) и направление, откуда дует ветер: С - северный, СВ - северо-восточный, В - восточный, ЮВ - юго-восточный, Ю - южный, ЮЗ - юго-западный, З - западный, СЗ - северо-западный.
Видимость - горизонтальная дальность видимости в метрах или километрах. При видимости от 1 до 10 км при отсутствии осадков обычно наблюдается дымка, при ухудшении видимости до 1 км и менее - туман. В сухую погоду видимость может ухудшаться дымом, пылью или мглою.
Явления - указаны атмосферные явления, наблюдавшиеся в срок или в последний час перед сроком; фигурными скобками обозначены явления, наблюдавшиеся между сроками (за 1-3 часа до срока); квадратными скобками обозначены град или гололедные отложения с указанием их диаметра в мм.
Облачность - указаны через наклонную черту общая и нижняя облачность в баллах и высота нижней границы облаков в метрах; квадратными скобками обозначены формы облаков: Ci - перистые, Cs - перисто-слоистые, Cc - перисто-кучевые, Ac - высококучевые, As - высокослоистые, Sc - слоисто-кучевые, Ns - слоисто-дождевые, Cu - кучевые, Cb - кучево-дождевые. Подробнее классификацию облаков см. в Атласе облаков (PDF).
T - Температура воздуха - температура, измеренная на высоте 2 м над землей.
Td - Температура точки росы - температура, при понижении до которой содержащийся в воздухе водяной пар достигнет насыщения.
f - Относительная влажность воздуха - влажноcть воздуха, измеренная на высоте 2 м над землей.
Te - Эффективная температура - температура, которую ощущает одетый по сезону человек в тени. Характеристика душности погоды. При расчете учитывается влияние влажности воздуха и скорости ветра на теплоощущения человека.
Tes - Эффективная температура на солнце - температура, которую ощущает человек, с поправкой на солнечный нагрев. Характеристика знойности погоды. Зависит от высоты солнца над горизонтом, облачности и скорости ветра. Ночью, в пасмурную погоду, а также при ветре 12 м/с и более поправка равна нулю.
P - Атмосферное давление - приведенное к уровню моря атмосферное давление.
Po - Атмосферное давление - измеренное на уровне метеостанции атмосферное давление.
Tmin - Минимальная температура - минимум температуры воздуха на высоте 2 м над землей.
Tmax - Максимальная температура - максимум температуры воздуха на высоте 2 м над землей.
R - Количество осадков - Количество выпавших осадков за период времени, мм. При наведении курсора мыши на число - период времени, за который выпало указанное количество осадков.
R24 - Количество осадков - Количество выпавших осадков за 24 часа, мм.
S - Снежный покров - Высота снежного покрова, см. При наведении курсора мыши на число - состояние снежного покрова и степень покрытия местности в баллах.